| time (UTC) | temp F | wind direction | speed MPH | gust MPH | rain 1hr in | rain 24hr in | rain mn in | humidity % | barometer mb |
| 20260503030029 | 46 | 122 | 0.0 | 5.0 | 0.00 | 0.27 | 0.24 | 46 | 1012.2 |
| 20260503024528 | 45 | 0 | 0.0 | 2.0 | 0.00 | 0.28 | 0.24 | 46 | 1012.2 |
| 20260503023027 | 46 | 0 | 0.0 | 2.0 | 0.00 | 0.28 | 0.24 | 45 | 1012.2 |
| 20260503021527 | 45 | 0 | 0.0 | 1.0 | 0.00 | 0.28 | 0.24 | 47 | 1012.3 |
| 20260503020030 | 46 | 0 | 0.0 | 0.0 | 0.00 | 0.28 | 0.24 | 48 | 1012.3 |
| 20260503014527 | 46 | 0 | 0.0 | 0.0 | 0.00 | 0.29 | 0.24 | 44 | 1012.2 |
| 20260503013029 | 47 | 0 | 0.0 | 1.0 | 0.00 | 0.29 | 0.24 | 43 | 1012.1 |
| 20260503011533 | 47 | 0 | 0.0 | 2.0 | 0.00 | 0.29 | 0.24 | 43 | 1012.1 |
| 20260503010031 | 48 | 0 | 0.0 | 1.0 | 0.00 | 0.29 | 0.24 | 41 | 1012.1 |
| 20260503004530 | 47 | 176 | 0.0 | 0.0 | 0.00 | 0.29 | 0.24 | 42 | 1011.9 |
| 20260503003030 | 48 | 0 | 0.0 | 1.0 | 0.00 | 0.29 | 0.24 | 40 | 1011.7 |
| 20260503001529 | 48 | 0 | 0.0 | 1.0 | 0.00 | 0.29 | 0.24 | 38 | 1011.6 |
| 20260503000030 | 49 | 0 | 0.0 | 3.0 | 0.00 | 0.29 | 0.24 | 40 | 1011.4 |
| 20260502234545 | 50 | 110 | 0.0 | 3.0 | 0.00 | 0.29 | 0.24 | 36 | 1011.2 |
| 20260502233027 | 50 | 110 | 0.0 | 3.0 | 0.00 | 0.29 | 0.24 | 36 | 1011.2 |
| 20260502231529 | 51 | 0 | 2.0 | 6.0 | 0.00 | 0.29 | 0.24 | 34 | 1011.2 |
| 20260502230032 | 52 | 134 | 0.0 | 2.0 | 0.00 | 0.29 | 0.24 | 32 | 1011.2 |
| 20260502224529 | 52 | 0 | 0.0 | 4.0 | 0.00 | 0.29 | 0.24 | 33 | 1011.1 |
| 20260502223030 | 52 | 131 | 3.0 | 7.0 | 0.00 | 0.29 | 0.24 | 32 | 1011.0 |
| 20260502221528 | 52 | 117 | 0.0 | 3.0 | 0.00 | 0.29 | 0.24 | 34 | 1010.9 |
| 20260502220030 | 53 | 0 | 0.0 | 4.0 | 0.00 | 0.29 | 0.24 | 33 | 1010.8 |
| 20260502214539 | 54 | 117 | 0.0 | 4.0 | 0.00 | 0.29 | 0.24 | 33 | 1010.9 |
| 20260502213030 | 54 | 223 | 0.0 | 2.0 | 0.00 | 0.29 | 0.24 | 33 | 1010.8 |
| 20260502211534 | 53 | 90 | 0.0 | 4.0 | 0.00 | 0.29 | 0.24 | 30 | 1010.5 |
| 20260502210032 | 55 | 119 | 0.0 | 3.0 | 0.00 | 0.29 | 0.24 | 31 | 1010.4 |
| 20260502204530 | 57 | 255 | 3.0 | 4.0 | 0.00 | 0.29 | 0.24 | 25 | 1010.4 |
| 20260502203028 | 57 | 0 | 1.0 | 6.0 | 0.00 | 0.29 | 0.24 | 28 | 1010.6 |
| 20260502201530 | 56 | 0 | 0.0 | 5.0 | 0.00 | 0.29 | 0.24 | 36 | 1010.6 |
| 20260502200030 | 55 | 228 | 1.0 | 7.0 | 0.00 | 0.29 | 0.24 | 32 | 1010.7 |
| 20260502194529 | 57 | 94 | 3.0 | 7.0 | 0.00 | 0.29 | 0.24 | 28 | 1010.8 |
| 20260502193028 | 56 | 90 | 3.0 | 6.0 | 0.00 | 0.29 | 0.24 | 30 | 1011.1 |
| 20260502191530 | 56 | 85 | 0.0 | 3.0 | 0.00 | 0.29 | 0.24 | 33 | 1011.4 |
| 20260502190032 | 56 | 94 | 1.0 | 5.0 | 0.00 | 0.29 | 0.24 | 33 | 1011.7 |
| 20260502184527 | 56 | 212 | 0.0 | 3.0 | 0.00 | 0.29 | 0.24 | 32 | 1011.8 |
| 20260502183029 | 58 | 76 | 0.0 | 3.0 | 0.00 | 0.29 | 0.24 | 35 | 1011.9 |
| 20260502181534 | 60 | 112 | 2.0 | 7.0 | 0.00 | 0.29 | 0.24 | 34 | 1011.9 |
| 20260502163032 | 54 | 129 | 2.0 | 9.0 | 0.00 | 0.29 | 0.24 | 36 | 1012.7 |
| 20260502161527 | 54 | 129 | 2.0 | 8.0 | 0.00 | 0.29 | 0.24 | 34 | 1012.7 |
| 20260502151529 | 51 | 211 | 2.0 | 6.0 | 0.00 | 0.29 | 0.24 | 44 | 1012.8 |
| 20260502123028 | 45 | 106 | 3.0 | 10.0 | 0.00 | 0.29 | 0.24 | 60 | 1013.0 |
| 20260502121538 | 45 | 144 | 1.0 | 9.0 | 0.00 | 0.29 | 0.24 | 64 | 1012.8 |
| 20260502114528 | 43 | 180 | 1.0 | 4.0 | 0.00 | 0.29 | 0.24 | 66 | 1012.7 |
| 20260502113030 | 41 | 195 | 0.0 | 2.0 | 0.00 | 0.29 | 0.24 | 67 | 1012.9 |
| 20260502111532 | 40 | 242 | 0.0 | 2.0 | 0.00 | 0.29 | 0.24 | 68 | 1013.1 |
| 20260502110035 | 40 | 0 | 0.0 | 1.0 | 0.00 | 0.29 | 0.24 | 69 | 1012.9 |
| 20260502104528 | 40 | 0 | 0.0 | 2.0 | 0.00 | 0.29 | 0.24 | 70 | 1012.8 |
| 20260502103029 | 40 | 121 | 1.0 | 9.0 | 0.00 | 0.29 | 0.24 | 68 | 1012.3 |
| 20260502101530 | 41 | 33 | 1.0 | 13.0 | 0.00 | 0.29 | 0.24 | 67 | 1012.3 |
| 20260502091530 | 44 | 0 | 0.0 | 0.0 | 0.01 | 0.29 | 0.24 | 70 | 1011.4 |
| 20260502071530 | 45 | 0 | 0.0 | 0.0 | 0.04 | 0.28 | 0.23 | 67 | 1011.2 |
| 20260502070027 | 45 | 0 | 0.0 | 0.0 | 0.07 | 0.28 | 0.23 | 67 | 1011.1 |
| 20260502064531 | 45 | 0 | 0.0 | 0.0 | 0.10 | 0.28 | 0.23 | 67 | 1011.3 |
| 20260502063031 | 45 | 0 | 0.0 | 0.0 | 0.12 | 0.27 | 0.22 | 67 | 1011.3 |
| 20260502061530 | 45 | 0 | 0.0 | 0.0 | 0.11 | 0.24 | 0.19 | 67 | 1011.8 |
| 20260502060027 | 46 | 0 | 0.0 | 0.0 | 0.09 | 0.21 | 0.16 | 67 | 1012.0 |
| 20260502054536 | 46 | 0 | 0.0 | 0.0 | 0.09 | 0.18 | 0.13 | 66 | 1012.0 |
| 20260502053035 | 46 | 0 | 0.0 | 0.0 | 0.09 | 0.15 | 0.10 | 68 | 1012.2 |
| 20260502051530 | 46 | 0 | 0.0 | 0.0 | 0.07 | 0.13 | 0.08 | 68 | 1012.1 |
| 20260502050030 | 46 | 0 | 0.0 | 0.0 | 0.07 | 0.12 | 0.07 | 68 | 1012.4 |
| 20260502044528 | 47 | 0 | 0.0 | 0.0 | 0.05 | 0.09 | 0.04 | 68 | 1012.4 |
| 20260502043027 | 47 | 244 | 0.0 | 1.0 | 0.03 | 0.06 | 0.01 | 68 | 1012.3 |
| 20260502041529 | 47 | 152 | 0.0 | 0.0 | 0.04 | 0.06 | 0.01 | 67 | 1011.9 |
| 20260502040028 | 47 | 118 | 0.0 | 5.0 | 0.03 | 0.05 | 0.00 | 67 | 1011.8 |
| 20260502034528 | 47 | 0 | 0.0 | 0.0 | 0.03 | 0.04 | 0.04 | 68 | 1011.6 |
| 20260502033040 | 47 | 0 | 0.0 | 1.0 | 0.01 | 0.02 | 0.02 | 68 | 1011.6 |
| 20260502031530 | 47 | 0 | 0.0 | 0.0 | 0.01 | 0.02 | 0.02 | 70 | 1011.6 |